COSMOS 2251 DEB, 35789

Orbit data source: Space-Track

COSMOS 2251 DEB, 35789 is space debris in LEO originally from a launch on Wed, 16 Jun 1993 UTC launched from the Plesetsk Missile And Space Complex (PKMTR). The debris from Iridium 33, an American commercial communications satellite, has been tracked extensively since its accidental collision with the defunct Russian satellite Cosmos 2251 in 2009. This event, occurring at high speed in low Earth orbit (LEO), generated thousands of pieces of space debris, significantly increasing the risk of further collisions. The Iridium 33 debris cloud has impacted space traffic management and orbital debris mitigation strategies, making it a subject of ongoing study in space situational awareness.

Loading next visibility...
Identifier
35789, 1993-036ASK
Orbit
LEO
Country
Flag of CISCIS
Related business
Manufacturer
Unknown
Mission
Spacecraft
Bus & Motor
Unknown
Mass
Unknown
Launch date (UTC)
1993-06-16 (33 years ago)
Launch vehicle
Unknown
Launch site
Plesetsk Missile And Space Complex (PKMTR)
Object type
Payload
Rocket body
Debris
Shape & HBR
Unknown shape, 0.1 m
Radar Cross Section
Small (<0.1 m²)

Expand to show TLE details & history
Last TLE update: 5 days ago

TLE from 5 days ago
0 COSMOS 2251 DEB
1 35789U 93036ASK 26249.17317332  .00000102  00000-0  43483-4 0  9992
2 35789  74.0394 153.4165 0048189 190.2735 169.7439 14.36143392650661
Epoch: 2026-09-06T04:09Z
TLE epoch observation values (Epoch: 2026-09-06T04:09:22.174Z)
Latitude
0.00002°
Longitude
105.80202°
Altitude
807.793 km
Speed
7.432 km/s
True Right ascension
10h 13m 39s
True Declination
0° 00' 00"
Sunlit
Object was in daylight at epoch
Visualization orbit readout
Latitude
Unknown
Longitude
Unknown
Altitude
Unknown
Speed
Unknown
Apparent Right ascension
Unknown
Apparent Declination
Unknown
Sunlit
N/A
Visualization observer readout
Local Sidereal Time
01:38:08
Azimuth
Unknown
Elevation
Unknown
Doppler factor
Unknown
Orbital elements
Apogee altitude
803.333 km
Perigee altitude
734.452 km
Semi-major axis
7,147.03 km
Eccentricity
0.00482
Inclination
74.0394°
RAAN
153.4165°
Arg. of periapsis
190.2735°
True anomaly
169.84164°
Mean anomaly
169.7439°
Eccentric anomaly
169.79283°
Mean motion
3.59215 °/min
Orbital period
100.22 mins
BSTAR
0.000043483
Loading maneuver chart data...
Computing Atmospheric mass density...

Documentation

Showing up to 5 results
|